Wind_Speed
5 4 6 6 6 5 5 6 7 8 7 6 3 1 2 2 3 3 6 9 11 9 4 3 4 5 7 8 9 11 13 16 20 22 24 26 29 30 32 35 38 44 47 46 44
6 5 5 4 3 3 3 4 4 5 6 5 5 4 3 3 3 5 10 10 12 12 6 4 5 7 8 8 9 12 14 18 20 22 25 27 30 31 31 34 38 41 47 48 46
6 6 7 7 7 8 7 6 6 6 6 6 7 7 8 10 10 13 16 16 14 12 9 8 7 7 8 9 12 15 18 20 21 22 26 29 33 37 37 38 37 41 44 48 47
7 7 7 8 10 12 12 12 13 12 11 11 12 12 13 16 18 19 20 17 13 12 13 10 7 9 11 13 15 16 18 19 21 22 25 28 31 35 38 42 43 45 45 46 49
9 9 8 9 10 11 13 14 15 16 17 17 18 18 19 19 22 23 21 17 14 13 11 8 8 10 12 14 15 16 16 18 22 24 23 23 26 27 34 39 43 45 48 47 51
10 9 10 11 11 10 10 10 10 10 11 14 16 19 19 19 20 19 15 13 15 13 11 10 10 12 13 15 16 16 17 18 18 20 23 23 23 25 29 33 36 39 42 43 44
10 11 12 11 11 11 10 9 9 10 11 13 14 14 15 15 15 13 14 13 15 14 13 12 11 13 14 15 16 16 19 20 18 20 22 20 21 26 27 31 34 38 40 41 43
10 11 13 13 13 13 13 12 12 13 14 14 15 14 13 15 15 14 14 14 16 16 13 12 13 14 16 17 16 16 18 21 21 21 24 21 17 22 23 27 32 37 39 40 41
12 13 13 14 15 15 15 15 15 15 15 15 16 15 14 15 13 14 15 15 17 16 15 16 16 15 16 17 18 16 18 19 21 26 27 27 23 24 28 30 29 31 34 38 39
14 14 15 15 16 17 18 17 17 18 17 15 16 15 15 15 15 15 17 19 18 19 18 18 18 18 17 18 19 19 20 21 26 28 28 26 25 27 30 32 33 36 35 33 28
16 16 16 15 16 17 18 18 19 19 20 15 15 13 15 15 16 17 19 21 21 20 19 18 20 20 18 18 19 19 21 24 25 30 28 26 23 28 28 29 30 31 32 32 29
20 20 19 18 17 17 18 19 18 17 17 15 15 15 16 17 18 18 20 21 21 21 19 19 23 20 20 20 22 23 22 25 23 27 29 30 23 31 28 28 30 28 20 23 25
23 24 24 22 21 20 21 21 22 21 19 20 17 17 18 20 21 20 22 20 19 20 19 21 23 21 22 21 23 23 24 26 25 26 28 35 24 30 30 32 31 30 21 19 23
27 29 27 25 25 24 25 26 25 25 23 22 20 20 20 22 24 25 25 26 24 22 20 22 23 23 23 21 25 21 26 27 27 30 31 32 30 23 30 31 32 31 26 23 23
28 29 29 30 29 30 29 29 29 29 30 26 26 22 22 26 27 28 26 24 24 24 22 23 24 24 24 25 26 22 23 26 29 33 32 33 37 25 30 29 28 29 27 26 21
29 28 30 31 30 31 31 29 28 31 35 32 28 27 25 28 30 30 29 29 27 24 24 24 28 29 27 26 25 24 25 28 31 32 31 32 35 29 32 30 27 27 24 23 23
33 30 28 29 30 30 31 31 31 28 35 35 30 30 30 30 30 32 29 31 29 29 26 27 25 29 29 27 27 26 28 31 32 33 31 29 33 28 32 32 29 29 26 25 24
35 34 33 32 32 32 31 33 34 32 36 40 38 36 34 33 35 34 35 31 31 32 32 30 24 28 30 28 27 27 29 32 37 36 35 31 33 26 30 33 32 32 29 28 27
39 38 40 38 38 38 37 36 36 36 42 42 42 43 39 38 38 38 39 38 35 35 36 34 31 24 31 31 31 31 33 36 36 38 40 37 38 22 26 31 33 33 35 31 32
37 36 36 37 39 41 42 42 42 43 46 45 45 43 43 39 41 41 40 43 42 39 38 40 38 32 28 30 32 33 36 39 38 41 42 38 42 32 25 31 33 35 39 37 36
37 38 37 38 40 41 41 40 43 45 48 48 47 48 48 45 43 43 44 43 44 45 45 45 43 39 38 31 28 32 39 43 44 44 45 43 42 36 29 34 34 39 40 40 39
38 38 40 38 39 39 40 41 43 43 46 49 51 52 52 52 50 47 47 46 46 47 48 46 45 43 43 41 35 36 38 40 43 45 48 46 42 37 35 36 39 35 37 39 45
34 34 40 42 45 45 45 45 45 45 43 44 49 52 51 52 53 50 48 49 47 45 48 46 45 45 46 45 43 41 41 41 41 46 47 46 45 41 36 37 41 37 39 45 47
45 45 43 47 50 53 54 55 54 51 51 50 49 48 52 54 53 53 53 51 45 43 43 46 48 49 50 49 49 49 45 43 43 46 46 47 47 44 40 40 42 46 48 49 44
49 51 52 53 54 55 58 59 60 60 57 56 52 52 54 55 54 54 53 53 48 46 46 47 49 50 47 47 51 52 49 47 46 40 47 44 51 48 48 48 48 47 47 46 45
51 53 54 56 59 60 55 56 59 63 66 61 59 57 54 57 58 55 54 54 52 49 47 47 46 48 47 46 48 48 49 47 47 46 48 44 47 44 48 49 44 44 44 42 42
55 55 57 60 63 61 55 54 56 60 62 65 65 61 60 58 59 59 59 56 55 51 48 48 48 47 48 48 46 50 44 46 47 48 48 46 43 46 40 39 40 41 41 44 46
Wind_Direction
355 355 16 51 69 67 54 57 56 49 55 61 59 25 294 1 42 99 24 10 6 352 314 282 283 278 276 269 267 257 258 260 266 267 268 261 260 264 268 264 265 267 269 271 274
346 323 321 329 347 357 18 35 30 40 46 46 49 44 28 15 357 331 332 335 350 346 316 293 285 294 296 293 297 288 281 277 271 270 270 268 267 265 266 269 269 269 267 267 268
336 333 316 297 303 310 307 307 320 335 336 344 345 337 330 329 324 328 326 325 327 321 289 275 285 294 298 309 301 298 287 284 279 271 261 258 256 256 254 251 253 259 264 266 264
322 323 326 317 302 301 304 302 298 298 307 310 308 311 314 315 320 317 319 322 309 288 280 280 285 293 304 311 313 303 294 286 280 274 272 270 269 268 269 265 261 257 249 259 268
313 316 323 325 319 315 312 308 304 299 297 298 301 302 305 304 304 303 305 300 277 272 269 271 286 295 305 307 313 309 300 287 286 290 292 284 279 274 269 267 264 262 261 255 253
306 304 309 314 318 321 317 306 302 301 302 297 298 298 301 301 299 297 290 270 264 258 259 267 287 303 307 312 315 310 298 286 285 282 280 284 281 279 276 274 272 269 265 267 265
312 299 294 297 300 307 317 312 303 299 299 299 300 303 304 298 294 277 261 260 258 253 257 272 290 296 302 305 307 306 302 300 296 291 285 285 283 289 287 284 282 278 272 266 263
310 306 299 293 293 298 303 306 306 304 302 302 305 299 298 296 288 272 267 264 260 256 263 271 282 291 295 299 301 303 301 303 299 291 292 297 296 288 284 280 279 274 270 266 265
313 303 295 292 291 290 292 295 299 300 298 301 298 295 292 288 279 282 277 267 260 260 260 267 277 281 285 291 296 299 296 292 290 294 294 294 293 290 289 288 289 287 279 264 256
314 305 298 292 289 288 288 289 291 295 291 293 291 288 283 279 273 278 276 270 262 259 261 268 269 270 275 282 290 295 298 295 286 280 284 292 300 299 300 304 301 297 294 286 276
315 308 300 295 292 289 287 291 293 292 288 288 284 278 283 278 273 270 268 267 266 263 266 267 266 269 275 277 281 281 279 274 272 279 284 286 295 291 295 298 299 296 299 288 278
307 304 300 295 290 289 288 289 289 290 287 285 277 281 276 281 274 273 270 269 262 266 264 257 259 270 270 270 268 272 274 277 280 280 285 284 296 295 300 302 305 307 302 292 285
308 301 297 295 292 290 287 288 290 286 278 280 277 277 275 279 281 278 275 266 262 264 265 265 265 266 268 267 270 277 280 281 285 281 281 287 291 297 304 305 308 311 302 290 309
298 296 294 291 288 287 283 285 286 287 286 279 276 277 272 276 274 273 272 270 267 268 270 267 270 275 276 271 267 275 278 288 289 286 282 282 290 286 291 299 305 310 310 304 295
298 296 292 287 286 285 283 282 282 282 280 275 276 276 282 278 275 274 270 269 270 268 264 271 274 275 278 273 279 281 284 284 283 283 285 284 287 290 285 289 296 304 307 302 296
300 298 296 292 287 285 285 285 283 285 284 281 278 277 278 280 282 276 267 267 266 267 273 273 278 279 277 281 281 281 282 283 283 283 284 281 285 287 284 283 287 292 298 295 292
294 291 291 290 291 288 286 285 283 281 283 283 283 280 278 277 284 282 270 261 265 269 269 270 270 276 281 283 280 278 278 282 280 283 288 287 283 293 287 285 282 283 288 292 288
290 289 286 283 283 282 282 284 283 283 280 285 286 285 284 284 285 281 274 266 264 266 269 271 266 276 279 280 282 280 281 282 285 290 290 288 286 292 285 282 280 279 280 282 284
292 291 287 285 283 281 280 278 280 279 278 278 283 286 288 287 285 286 278 271 267 269 272 272 268 263 278 284 284 285 284 284 286 287 289 293 294 291 280 277 273 273 273 274 277
293 291 293 286 285 286 284 282 280 277 277 279 281 281 281 280 280 281 278 275 273 270 273 272 273 274 272 276 283 283 283 281 281 286 290 294 292 299 294 285 278 275 270 271 272
293 290 286 284 283 283 284 283 279 279 278 277 276 278 279 276 271 270 271 269 266 270 272 273 273 276 277 276 273 274 277 279 284 284 286 289 288 292 289 287 277 273 275 277 275
300 299 296 294 291 289 287 284 279 276 274 275 275 274 272 273 272 269 265 262 259 263 267 270 272 273 276 277 277 271 271 270 273 278 278 281 288 291 289 287 282 279 278 267 266
294 296 298 299 298 295 292 289 285 282 279 277 275 273 274 275 273 270 266 264 263 266 268 271 269 269 269 273 277 278 275 275 273 275 275 277 288 288 284 277 278 273 266 261 265
297 296 295 295 295 294 293 291 287 284 281 275 274 273 271 271 271 272 269 266 265 265 265 267 266 267 268 272 275 275 274 275 275 276 282 281 285 286 281 274 270 270 269 273 278
301 299 297 295 293 290 288 286 283 278 274 274 269 267 266 267 268 269 269 270 269 270 269 270 269 269 269 270 271 273 279 279 277 281 273 283 279 282 283 278 274 276 280 281 278
299 298 298 297 295 293 286 279 277 275 273 265 262 261 257 262 265 264 264 267 268 269 270 271 273 273 270 267 267 270 273 280 283 280 278 277 281 278 271 276 280 278 278 281 281
302 303 301 300 300 298 297 292 282 274 268 265 264 259 256 255 257 260 263 263 265 265 266 266 268 269 270 271 272 271 277 277 277 279 280 281 279 276 274 273 274 276 279 284 282
Height
5866 5866 5865 5863 5863 5862 5861 5860 5859 5858 5857 5856 5855 5855 5855 5855 5855 5854 5854 5854 5853 5852 5852 5851 5851 5851 5852 5852 5852 5852 5853 5852 5852 5852 5853 5854 5853 5854 5854 5853 5851 5848 5847 5849 5849
5866 5866 5865 5864 5863 5863 5862 5861 5860 5859 5857 5856 5855 5855 5854 5854 5854 5853 5853 5851 5850 5850 5850 5849 5848 5848 5848 5848 5848 5848 5848 5847 5847 5847 5848 5848 5847 5847 5848 5848 5847 5845 5841 5841 5842
5866 5865 5864 5863 5862 5862 5861 5860 5860 5858 5857 5855 5854 5854 5853 5852 5852 5850 5849 5848 5848 5848 5847 5846 5845 5845 5845 5845 5844 5843 5842 5841 5841 5841 5841 5840 5839 5837 5837 5839 5838 5838 5835 5832 5834
5866 5864 5863 5862 5861 5860 5859 5859 5858 5857 5855 5854 5852 5851 5850 5850 5850 5848 5847 5846 5845 5844 5844 5842 5842 5841 5841 5840 5839 5838 5837 5836 5834 5834 5834 5833 5833 5831 5830 5831 5831 5830 5831 5826 5821
5865 5863 5862 5861 5860 5858 5857 5856 5855 5854 5853 5851 5850 5849 5848 5847 5846 5844 5843 5842 5841 5840 5840 5839 5838 5837 5837 5836 5835 5833 5833 5831 5829 5827 5827 5827 5826 5826 5822 5820 5820 5819 5818 5820 5819
5863 5862 5861 5860 5858 5857 5855 5854 5853 5851 5850 5848 5847 5845 5844 5844 5842 5840 5839 5839 5837 5836 5836 5835 5834 5832 5832 5831 5830 5829 5827 5826 5825 5823 5821 5821 5818 5817 5815 5812 5809 5809 5809 5807 5807
5861 5860 5858 5857 5856 5854 5853 5852 5850 5849 5847 5845 5844 5842 5841 5840 5838 5837 5836 5835 5833 5833 5831 5829 5828 5828 5827 5826 5825 5824 5821 5820 5819 5816 5814 5814 5813 5810 5809 5805 5803 5801 5800 5799 5798
5858 5857 5855 5854 5853 5851 5850 5849 5847 5846 5844 5842 5840 5839 5837 5835 5833 5833 5832 5831 5829 5828 5826 5825 5824 5823 5822 5821 5820 5819 5816 5813 5812 5810 5807 5808 5809 5804 5801 5799 5797 5794 5792 5790 5789
5856 5854 5852 5851 5849 5848 5846 5844 5843 5841 5840 5838 5836 5834 5833 5831 5830 5829 5827 5826 5825 5823 5821 5820 5820 5818 5817 5815 5814 5813 5812 5810 5806 5802 5803 5801 5801 5798 5794 5791 5790 5788 5785 5782 5781
5853 5851 5849 5846 5845 5844 5842 5840 5838 5837 5835 5834 5832 5831 5829 5827 5825 5823 5823 5821 5820 5817 5816 5815 5814 5813 5812 5810 5808 5806 5805 5803 5802 5800 5797 5795 5794 5790 5786 5783 5781 5778 5776 5775 5775
5849 5847 5845 5843 5841 5839 5838 5836 5836 5834 5830 5829 5827 5825 5824 5823 5821 5819 5818 5816 5814 5813 5811 5809 5808 5806 5805 5804 5802 5801 5800 5799 5796 5792 5792 5789 5789 5785 5782 5778 5775 5772 5768 5766 5767
5845 5843 5841 5839 5837 5835 5832 5831 5830 5829 5826 5824 5822 5820 5819 5817 5816 5814 5813 5812 5809 5806 5806 5805 5801 5801 5799 5797 5796 5795 5794 5792 5791 5788 5785 5782 5784 5777 5775 5772 5768 5765 5762 5761 5761
5841 5838 5835 5834 5832 5830 5827 5826 5823 5822 5822 5818 5816 5815 5814 5812 5809 5808 5807 5805 5803 5800 5800 5797 5796 5795 5794 5792 5790 5788 5786 5784 5784 5782 5779 5773 5778 5770 5767 5764 5763 5760 5760 5758 5756
5835 5832 5829 5828 5827 5824 5821 5819 5817 5815 5815 5814 5811 5810 5808 5806 5804 5802 5800 5799 5797 5795 5794 5791 5790 5788 5786 5786 5783 5783 5778 5776 5775 5773 5770 5768 5766 5769 5763 5760 5757 5755 5753 5753 5752
5828 5825 5823 5820 5819 5817 5815 5813 5811 5809 5806 5808 5805 5804 5803 5800 5798 5795 5794 5790 5789 5788 5788 5785 5783 5782 5780 5778 5775 5775 5772 5769 5766 5763 5762 5760 5756 5763 5757 5756 5754 5751 5749 5746 5745
5820 5818 5815 5813 5812 5809 5807 5805 5804 5803 5797 5798 5799 5797 5795 5792 5790 5788 5786 5783 5781 5780 5778 5778 5775 5773 5773 5771 5769 5767 5765 5762 5758 5755 5755 5753 5750 5752 5749 5749 5748 5746 5745 5742 5738
5812 5810 5808 5805 5804 5802 5799 5798 5797 5794 5789 5787 5790 5789 5787 5784 5782 5779 5778 5777 5775 5771 5771 5770 5769 5765 5765 5763 5762 5760 5758 5753 5751 5748 5747 5746 5741 5743 5740 5739 5738 5738 5737 5735 5733
5804 5802 5799 5796 5794 5793 5792 5791 5788 5787 5782 5778 5777 5778 5777 5777 5773 5770 5767 5768 5765 5763 5761 5761 5763 5759 5755 5755 5753 5751 5749 5745 5739 5739 5738 5738 5734 5736 5732 5730 5729 5729 5729 5727 5726
5795 5792 5790 5789 5786 5783 5783 5780 5779 5778 5773 5771 5769 5767 5767 5765 5764 5761 5758 5757 5756 5755 5754 5751 5752 5754 5748 5746 5745 5743 5740 5736 5732 5730 5725 5726 5722 5729 5727 5723 5721 5719 5718 5718 5717
5787 5784 5780 5778 5776 5774 5772 5770 5768 5765 5762 5761 5758 5758 5756 5756 5752 5749 5749 5747 5746 5745 5742 5740 5739 5741 5743 5740 5737 5734 5729 5725 5724 5719 5715 5715 5711 5717 5717 5713 5713 5710 5707 5707 5707
5775 5772 5771 5769 5766 5764 5761 5758 5755 5754 5750 5748 5746 5745 5744 5742 5741 5738 5736 5738 5735 5734 5731 5729 5728 5730 5728 5732 5730 5726 5719 5715 5712 5711 5706 5704 5703 5707 5709 5704 5702 5697 5697 5698 5695
5765 5762 5758 5756 5755 5752 5749 5746 5744 5741 5737 5734 5732 5730 5728 5727 5726 5726 5725 5722 5723 5722 5720 5718 5716 5717 5715 5715 5717 5715 5713 5709 5704 5703 5696 5694 5694 5697 5696 5694 5689 5690 5687 5684 5680
5757 5754 5748 5744 5740 5738 5736 5733 5730 5727 5725 5722 5717 5712 5712 5711 5710 5711 5712 5711 5710 5710 5706 5705 5705 5704 5703 5704 5702 5699 5698 5695 5692 5690 5687 5684 5682 5683 5685 5682 5676 5676 5673 5669 5669
5743 5741 5741 5735 5729 5724 5720 5717 5714 5712 5708 5705 5704 5702 5696 5694 5694 5695 5696 5696 5697 5696 5693 5689 5689 5688 5688 5689 5687 5685 5685 5683 5679 5676 5676 5673 5670 5671 5671 5668 5666 5661 5659 5658 5660
5730 5726 5722 5720 5714 5708 5703 5700 5697 5694 5692 5689 5690 5684 5681 5682 5681 5680 5678 5677 5680 5681 5679 5675 5675 5673 5676 5677 5671 5670 5670 5668 5665 5670 5659 5665 5656 5659 5658 5653 5650 5649 5649 5648 5646
5717 5713 5709 5703 5695 5688 5681 5679 5675 5672 5669 5670 5666 5667 5667 5662 5660 5663 5663 5662 5662 5663 5664 5662 5660 5657 5661 5659 5656 5658 5657 5657 5654 5651 5648 5650 5648 5643 5641 5640 5639 5638 5637 5636 5633
5700 5696 5691 5684 5675 5666 5663 5658 5654 5650 5652 5646 5645 5645 5645 5644 5644 5645 5645 5646 5647 5647 5648 5648 5645 5641 5646 5640 5643 5644 5649 5643 5641 5637 5634 5635 5637 5632 5631 5630 5629 5627 5625 5623 5621